| time (UTC) | temp F | wind direction | speed knots | gust knots | rain 1hr in | rain 24hr in | rain mn in | humidity % | barometer mb |
| 20260903062318 | 83 | 173 | 1.7 | 3.5 | 0.00 | 0.00 | 0.00 | 83 | 1017.3 |
| 20260903061311 | 83 | 82 | 1.7 | 4.3 | 0.00 | 0.00 | 0.00 | 83 | 1017.5 |
| 20260903060328 | 83 | 186 | 0.9 | 2.6 | 0.00 | 0.00 | 0.00 | 82 | 1017.6 |
| 20260903055321 | 83 | 130 | 0.9 | 2.6 | 0.00 | 0.00 | 0.00 | 82 | 1017.6 |
| 20260903054320 | 84 | 108 | 1.7 | 2.6 | 0.00 | 0.00 | 0.00 | 81 | 1017.6 |
| 20260903053315 | 84 | 179 | 1.7 | 3.5 | 0.00 | 0.00 | 0.00 | 81 | 1017.7 |
| 20260903052333 | 84 | 72 | 1.7 | 4.3 | 0.00 | 0.00 | 0.00 | 80 | 1017.7 |
| 20260903051326 | 85 | 157 | 1.7 | 6.1 | 0.00 | 0.00 | 0.00 | 80 | 1017.7 |
| 20260903050327 | 85 | 131 | 3.5 | 6.1 | 0.00 | 0.00 | 0.00 | 80 | 1017.7 |
| 20260903045340 | 85 | 145 | 1.7 | 4.3 | 0.00 | 0.00 | 0.00 | 80 | 1017.7 |
| 20260903044317 | 85 | 194 | 1.7 | 4.3 | 0.00 | 0.00 | 0.00 | 80 | 1017.8 |
| 20260903043311 | 85 | 225 | 2.6 | 5.2 | 0.00 | 0.00 | 0.00 | 80 | 1017.7 |
| 20260903042328 | 86 | 150 | 3.5 | 6.1 | 0.00 | 0.00 | 0.00 | 80 | 1017.7 |
| 20260903041321 | 86 | 76 | 1.7 | 3.5 | 0.00 | 0.00 | 0.00 | 80 | 1017.7 |
| 20260903040313 | 86 | 153 | 2.6 | 5.2 | 0.00 | 0.00 | 0.00 | 79 | 1017.7 |
| 20260903035314 | 86 | 136 | 2.6 | 7.0 | 0.00 | 0.00 | 0.00 | 79 | 1017.8 |
| 20260903034313 | 87 | 179 | 3.5 | 6.1 | 0.00 | 0.00 | 0.00 | 79 | 1017.8 |
| 20260903033333 | 87 | 170 | 2.6 | 5.2 | 0.00 | 0.00 | 0.00 | 79 | 1017.8 |
| 20260903032327 | 87 | 149 | 2.6 | 4.3 | 0.00 | 0.00 | 0.00 | 78 | 1017.8 |
| 20260903031331 | 88 | 127 | 2.6 | 4.3 | 0.00 | 0.00 | 0.00 | 78 | 1017.6 |
| 20260903030346 | 88 | 200 | 1.7 | 6.1 | 0.00 | 0.00 | 0.00 | 77 | 1017.5 |
| 20260903025329 | 88 | 159 | 2.6 | 5.2 | 0.00 | 0.00 | 0.00 | 77 | 1017.3 |
| 20260903024325 | 88 | 146 | 2.6 | 5.2 | 0.00 | 0.00 | 0.00 | 77 | 1017.1 |
| 20260903023348 | 88 | 200 | 2.6 | 7.0 | 0.00 | 0.00 | 0.00 | 76 | 1017.2 |
| 20260903022321 | 88 | 140 | 3.5 | 7.0 | 0.00 | 0.00 | 0.00 | 76 | 1017.1 |
| 20260903021344 | 88 | 142 | 4.3 | 7.8 | 0.00 | 0.00 | 0.00 | 75 | 1017.2 |
| 20260903020338 | 88 | 126 | 6.1 | 7.8 | 0.00 | 0.00 | 0.00 | 74 | 1017.6 |
| 20260903015320 | 88 | 142 | 3.5 | 6.1 | 0.00 | 0.00 | 0.00 | 73 | 1018.0 |
| 20260903014314 | 88 | 152 | 2.6 | 3.5 | 0.00 | 0.00 | 0.00 | 72 | 1018.2 |
| 20260903013315 | 89 | 146 | 0.9 | 2.6 | 0.00 | 0.00 | 0.00 | 72 | 1018.3 |
| 20260903012313 | 89 | 281 | 0.9 | 1.7 | 0.00 | 0.00 | 0.00 | 70 | 1018.4 |
| 20260903011337 | 89 | 80 | 0.9 | 1.7 | 0.00 | 0.00 | 0.00 | 70 | 1018.3 |
| 20260903010339 | 90 | 80 | 0.0 | 1.7 | 0.00 | 0.00 | 0.00 | 69 | 1018.1 |
| 20260903005336 | 90 | 81 | 0.9 | 1.7 | 0.00 | 0.00 | 0.00 | 69 | 1017.9 |
| 20260903004314 | 90 | 188 | 0.9 | 1.7 | 0.00 | 0.00 | 0.00 | 68 | 1017.4 |
| 20260903003310 | 90 | 165 | 0.9 | 2.6 | 0.00 | 0.00 | 0.00 | 69 | 1017.3 |
| 20260903002308 | 90 | 184 | 0.9 | 2.6 | 0.00 | 0.00 | 0.00 | 70 | 1017.2 |
| 20260903001313 | 91 | 180 | 1.7 | 2.6 | 0.00 | 0.00 | 0.00 | 71 | 1017.2 |
| 20260903000312 | 91 | 175 | 0.0 | 1.7 | 0.00 | 0.00 | 0.00 | 70 | 1017.0 |
| 20260902235334 | 92 | 154 | 0.9 | 1.7 | 0.00 | 0.00 | 0.00 | 69 | 1017.0 |
| 20260902234328 | 93 | 86 | 0.9 | 1.7 | 0.00 | 0.00 | 0.00 | 68 | 1017.2 |
| 20260902233335 | 93 | 51 | 0.9 | 0.9 | 0.00 | 0.00 | 0.00 | 67 | 1017.0 |
| 20260902232331 | 94 | 71 | 0.9 | 1.7 | 0.00 | 0.00 | 0.00 | 66 | 1017.0 |
| 20260902231328 | 94 | 101 | 0.0 | 0.9 | 0.00 | 0.00 | 0.00 | 65 | 1017.0 |
| 20260902230331 | 95 | 124 | 0.0 | 2.6 | 0.00 | 0.00 | 0.00 | 65 | 1017.1 |
| 20260902225347 | 97 | 78 | 0.9 | 2.6 | 0.00 | 0.00 | 0.00 | 62 | 1017.0 |
| 20260902224330 | 98 | 61 | 0.9 | 2.6 | 0.00 | 0.00 | 0.00 | 59 | 1017.0 |
| 20260902223323 | 99 | 47 | 0.9 | 3.5 | 0.00 | 0.00 | 0.00 | 57 | 1017.0 |
| 20260902222324 | 100 | 35 | 1.7 | 3.5 | 0.00 | 0.00 | 0.00 | 55 | 1016.9 |
| 20260902221320 | 101 | 9 | 0.9 | 2.6 | 0.00 | 0.00 | 0.00 | 52 | 1016.8 |
| 20260902220316 | 102 | 34 | 1.7 | 3.5 | 0.00 | 0.00 | 0.00 | 51 | 1016.8 |
| 20260902215317 | 103 | 17 | 0.9 | 4.3 | 0.00 | 0.00 | 0.00 | 50 | 1016.9 |
| 20260902214309 | 104 | 44 | 1.7 | 4.3 | 0.00 | 0.00 | 0.00 | 48 | 1017.0 |
| 20260902213326 | 104 | 108 | 1.7 | 4.3 | 0.00 | 0.00 | 0.00 | 49 | 1017.0 |
| 20260902212323 | 104 | 85 | 2.6 | 4.3 | 0.00 | 0.00 | 0.00 | 50 | 1016.9 |
| 20260902211342 | 104 | 355 | 2.6 | 5.2 | 0.00 | 0.00 | 0.00 | 48 | 1017.1 |
| 20260902210318 | 104 | 31 | 2.6 | 4.3 | 0.00 | 0.00 | 0.00 | 50 | 1017.2 |
| 20260902205319 | 104 | 9 | 1.7 | 5.2 | 0.00 | 0.00 | 0.00 | 52 | 1017.2 |
| 20260902204314 | 104 | 63 | 3.5 | 6.1 | 0.00 | 0.00 | 0.00 | 51 | 1017.2 |
| 20260902203312 | 103 | 28 | 1.7 | 6.1 | 0.00 | 0.00 | 0.00 | 53 | 1017.2 |
| 20260902202330 | 103 | 84 | 3.5 | 5.2 | 0.00 | 0.00 | 0.00 | 54 | 1017.2 |
| 20260902201349 | 103 | 180 | 1.7 | 5.2 | 0.00 | 0.00 | 0.00 | 54 | 1017.2 |
| 20260902200322 | 102 | 15 | 1.7 | 7.0 | 0.00 | 0.00 | 0.00 | 55 | 1017.4 |
| 20260902195321 | 101 | 27 | 2.6 | 4.3 | 0.00 | 0.00 | 0.00 | 55 | 1017.5 |
| 20260902194317 | 102 | 196 | 1.7 | 6.1 | 0.00 | 0.00 | 0.00 | 52 | 1017.6 |
| 20260902193313 | 103 | 24 | 1.7 | 5.2 | 0.00 | 0.00 | 0.00 | 53 | 1017.6 |
| 20260902192313 | 104 | 61 | 4.3 | 5.2 | 0.00 | 0.00 | 0.00 | 50 | 1017.7 |
| 20260902191335 | 104 | 123 | 1.7 | 6.1 | 0.00 | 0.00 | 0.00 | 52 | 1017.7 |
| 20260902190324 | 104 | 54 | 3.5 | 5.2 | 0.00 | 0.00 | 0.00 | 54 | 1017.8 |
| 20260902185319 | 103 | 82 | 2.6 | 4.3 | 0.00 | 0.00 | 0.00 | 53 | 1017.9 |
| 20260902184346 | 103 | 82 | 2.6 | 7.8 | 0.00 | 0.00 | 0.00 | 51 | 1018.0 |
| 20260902183314 | 103 | 26 | 1.7 | 6.1 | 0.00 | 0.00 | 0.00 | 54 | 1018.1 |
| 20260902182321 | 103 | 32 | 2.6 | 6.1 | 0.00 | 0.00 | 0.00 | 54 | 1018.2 |
| 20260902181322 | 103 | 64 | 1.7 | 5.2 | 0.00 | 0.00 | 0.00 | 53 | 1018.2 |
| 20260902180329 | 103 | 138 | 2.6 | 6.1 | 0.00 | 0.00 | 0.00 | 51 | 1018.3 |
| 20260902175327 | 103 | 183 | 1.7 | 7.0 | 0.00 | 0.00 | 0.00 | 55 | 1018.5 |
| 20260902174316 | 102 | 49 | 0.9 | 5.2 | 0.00 | 0.00 | 0.00 | 58 | 1018.5 |
| 20260902173330 | 101 | 97 | 0.9 | 4.3 | 0.00 | 0.00 | 0.00 | 60 | 1018.5 |
| 20260902172353 | 101 | 94 | 1.7 | 4.3 | 0.00 | 0.00 | 0.00 | 59 | 1018.5 |
| 20260902171310 | 101 | 34 | 1.7 | 6.1 | 0.00 | 0.00 | 0.00 | 59 | 1018.7 |
| 20260902170326 | 101 | 340 | 1.7 | 5.2 | 0.00 | 0.00 | 0.00 | 58 | 1018.8 |
| 20260902165327 | 101 | 64 | 2.6 | 5.2 | 0.00 | 0.00 | 0.00 | 59 | 1018.8 |
| 20260902164336 | 101 | 165 | 1.7 | 5.2 | 0.00 | 0.00 | 0.00 | 61 | 1018.9 |
| 20260902163332 | 100 | 145 | 3.5 | 7.0 | 0.00 | 0.00 | 0.00 | 60 | 1019.0 |
| 20260902162331 | 100 | 30 | 1.7 | 5.2 | 0.00 | 0.00 | 0.00 | 61 | 1019.1 |
| 20260902161321 | 100 | 28 | 2.6 | 7.0 | 0.00 | 0.00 | 0.00 | 59 | 1019.1 |
| 20260902160311 | 100 | 146 | 1.7 | 7.0 | 0.00 | 0.00 | 0.00 | 59 | 1019.2 |
| 20260902155326 | 99 | 166 | 1.7 | 6.1 | 0.00 | 0.00 | 0.00 | 60 | 1019.2 |
| 20260902154323 | 98 | 99 | 2.6 | 5.2 | 0.00 | 0.00 | 0.00 | 62 | 1019.2 |
| 20260902153313 | 97 | 350 | 1.7 | 4.3 | 0.00 | 0.00 | 0.00 | 63 | 1019.3 |
| 20260902152330 | 96 | 69 | 1.7 | 4.3 | 0.00 | 0.00 | 0.00 | 67 | 1019.2 |
| 20260902151320 | 95 | 131 | 1.7 | 3.5 | 0.00 | 0.00 | 0.00 | 67 | 1019.1 |
| 20260902150316 | 94 | 338 | 1.7 | 3.5 | 0.00 | 0.00 | 0.00 | 69 | 1019.0 |
| 20260902145324 | 93 | 5 | 2.6 | 3.5 | 0.00 | 0.00 | 0.00 | 69 | 1019.0 |
| 20260902144325 | 92 | 347 | 0.9 | 2.6 | 0.00 | 0.00 | 0.00 | 71 | 1018.9 |
| 20260902143334 | 91 | 42 | 1.7 | 3.5 | 0.00 | 0.00 | 0.00 | 73 | 1018.9 |
| 20260902142311 | 90 | 215 | 1.7 | 4.3 | 0.00 | 0.00 | 0.00 | 73 | 1019.0 |
| 20260902141328 | 90 | 255 | 2.6 | 5.2 | 0.00 | 0.00 | 0.00 | 74 | 1018.8 |
| 20260902140325 | 89 | 340 | 1.7 | 2.6 | 0.00 | 0.00 | 0.00 | 77 | 1018.8 |
| 20260902135320 | 89 | 225 | 2.6 | 3.5 | 0.00 | 0.00 | 0.00 | 76 | 1018.9 |
| 20260902134341 | 88 | 261 | 1.7 | 2.6 | 0.00 | 0.00 | 0.00 | 78 | 1018.9 |
| 20260902133335 | 87 | 310 | 1.7 | 3.5 | 0.00 | 0.00 | 0.00 | 78 | 1018.9 |
| 20260902132309 | 86 | 261 | 1.7 | 3.5 | 0.00 | 0.00 | 0.00 | 80 | 1018.9 |
| 20260902131317 | 85 | 244 | 2.6 | 3.5 | 0.00 | 0.00 | 0.00 | 81 | 1018.9 |
| 20260902130332 | 85 | 259 | 2.6 | 5.2 | 0.00 | 0.00 | 0.00 | 82 | 1019.0 |
| 20260902125334 | 84 | 250 | 1.7 | 4.3 | 0.00 | 0.00 | 0.00 | 85 | 1018.9 |
| 20260902124311 | 83 | 256 | 3.5 | 5.2 | 0.00 | 0.00 | 0.00 | 86 | 1019.0 |
| 20260902123334 | 82 | 215 | 3.5 | 6.1 | 0.00 | 0.00 | 0.00 | 86 | 1019.1 |
| 20260902122310 | 81 | 223 | 4.3 | 7.0 | 0.00 | 0.00 | 0.00 | 87 | 1019.1 |
| 20260902121336 | 81 | 279 | 3.5 | 7.0 | 0.00 | 0.00 | 0.00 | 88 | 1019.1 |
| 20260902120329 | 80 | 223 | 3.5 | 6.1 | 0.00 | 0.00 | 0.00 | 89 | 1019.1 |
| 20260902115325 | 80 | 265 | 3.5 | 5.2 | 0.00 | 0.00 | 0.00 | 89 | 1019.2 |
| 20260902114329 | 80 | 223 | 1.7 | 5.2 | 0.00 | 0.00 | 0.00 | 89 | 1019.2 |
| 20260902113350 | 79 | 248 | 1.7 | 3.5 | 0.00 | 0.00 | 0.00 | 90 | 1019.2 |
| 20260902112323 | 79 | 242 | 1.7 | 3.5 | 0.00 | 0.00 | 0.00 | 90 | 1019.1 |
| 20260902111342 | 79 | 257 | 1.7 | 3.5 | 0.00 | 0.00 | 0.00 | 89 | 1019.1 |
| 20260902110313 | 79 | 188 | 1.7 | 6.1 | 0.00 | 0.00 | 0.00 | 89 | 1018.8 |
| 20260902105333 | 79 | 259 | 2.6 | 3.5 | 0.00 | 0.00 | 0.00 | 89 | 1018.8 |
| 20260902104330 | 79 | 242 | 2.6 | 4.3 | 0.00 | 0.00 | 0.00 | 89 | 1018.7 |
| 20260902103350 | 80 | 251 | 1.7 | 4.3 | 0.00 | 0.00 | 0.00 | 88 | 1018.7 |
| 20260902102332 | 80 | 201 | 1.7 | 4.3 | 0.00 | 0.00 | 0.00 | 88 | 1018.7 |
| 20260902101324 | 80 | 194 | 2.6 | 4.3 | 0.00 | 0.00 | 0.00 | 88 | 1018.7 |
| 20260902100318 | 80 | 255 | 2.6 | 6.1 | 0.00 | 0.00 | 0.00 | 88 | 1018.6 |
| 20260902095338 | 80 | 223 | 2.6 | 4.3 | 0.00 | 0.00 | 0.00 | 87 | 1018.6 |
| 20260902094311 | 80 | 244 | 2.6 | 4.3 | 0.00 | 0.00 | 0.00 | 87 | 1018.5 |
| 20260902093312 | 80 | 210 | 2.6 | 6.1 | 0.00 | 0.00 | 0.00 | 87 | 1018.6 |
| 20260902092310 | 80 | 237 | 1.7 | 5.2 | 0.00 | 0.00 | 0.00 | 86 | 1018.7 |
| 20260902091331 | 81 | 233 | 2.6 | 7.0 | 0.00 | 0.00 | 0.00 | 86 | 1018.6 |
| 20260902090324 | 81 | 219 | 1.7 | 5.2 | 0.00 | 0.00 | 0.00 | 85 | 1018.5 |
| 20260902085318 | 81 | 236 | 2.6 | 6.1 | 0.00 | 0.00 | 0.00 | 85 | 1018.5 |
| 20260902084337 | 81 | 254 | 1.7 | 6.1 | 0.00 | 0.00 | 0.00 | 85 | 1018.5 |
| 20260902083310 | 81 | 217 | 2.6 | 4.3 | 0.00 | 0.00 | 0.00 | 84 | 1018.5 |
| 20260902082331 | 81 | 219 | 2.6 | 7.8 | 0.00 | 0.00 | 0.00 | 84 | 1018.4 |
| 20260902081314 | 81 | 196 | 2.6 | 6.1 | 0.00 | 0.00 | 0.00 | 84 | 1018.3 |
| 20260902080311 | 81 | 229 | 3.5 | 7.0 | 0.00 | 0.00 | 0.00 | 84 | 1018.4 |
| 20260902075334 | 81 | 206 | 3.5 | 7.0 | 0.00 | 0.00 | 0.00 | 83 | 1018.4 |
| 20260902074309 | 81 | 150 | 2.6 | 6.1 | 0.00 | 0.00 | 0.00 | 83 | 1018.4 |
| 20260902073332 | 81 | 161 | 2.6 | 4.3 | 0.00 | 0.00 | 0.00 | 83 | 1018.4 |
| 20260902072328 | 81 | 150 | 1.7 | 6.1 | 0.00 | 0.00 | 0.00 | 83 | 1018.4 |
| 20260902071324 | 82 | 234 | 1.7 | 5.2 | 0.00 | 0.00 | 0.00 | 83 | 1018.4 |
| 20260902070327 | 82 | 164 | 2.6 | 4.3 | 0.00 | 0.00 | 0.00 | 83 | 1018.6 |
| 20260902065319 | 82 | 205 | 2.6 | 4.3 | 0.00 | 0.00 | 0.00 | 82 | 1018.6 |
| 20260902064317 | 82 | 163 | 2.6 | 4.3 | 0.00 | 0.00 | 0.00 | 82 | 1018.7 |
| 20260902063319 | 82 | 194 | 1.7 | 5.2 | 0.00 | 0.00 | 0.00 | 83 | 1018.7 |